Weather History for Missoula, MT

Change the Weather History Date:

Tuesday, July 22, 2014

  Actual Average Record
Temperature  
Mean Temperature 70 °F 70 °F  
Max Temperature 90 °F 88 °F 105 °F (1936)
Min Temperature 50 °F 52 °F 37 °F (1952)
Degree Days  
Heating Degree Days 0 1  
Month to date heating degree days 0 33  
Since 1 June heating degree days 177 193  
Since 1 July heating degree days 0 33  
Cooling Degree Days 5 6  
Month to date cooling degree days 172 98  
Year to date cooling degree days 180 141  
Since 1 June cooling degree days 180 135  
Growing Degree Days 21 (Base 50)    
Moisture  
Dew Point 44 °F    
Average Humidity 45    
Maximum Humidity 68    
Minimum Humidity 21    
Precipitation  
Precipitation T in 0.03 in 0.40 in (1893)
Month to date precipitation 0.19 0.74  
Year to date precipitation 9.03 8.59  
Snow  
Snow 0.00 in - - ()
Month to date snowfall 0.0  
Year to date snowfall 51.9  
Since 1 July snowfall 0.0  
Snow Depth 0.00 in    
Sea Level Pressure  
Sea Level Pressure 30.08 in    
Wind  
Wind Speed 7 mph (NW)    
Max Wind Speed 26 mph    
Max Gust Speed 35 mph    
Visibility 10 miles    
Events      
T = Trace of Precipitation, MM = Missing Value Source: NWS Daily Summary

Daily Weather History Graph

Daily Weather History Graph

Search for Another Location

Airport:

Trip Planner

Search our weather history database for the weather conditions in past years. The results will help you decide how hot, cold, wet, or windy it might be!

Date:

Astronomy

Jul. 22, 2014 Rise Set
Actual Time 6:04 AM MDT 9:20 PM MDT
Civil Twilight 5:27 AM MDT 9:57 PM MDT
Nautical Twilight 4:39 AM MDT 10:45 PM MDT
Astronomical Twilight 3:37 AM MDT 11:45 PM MDT
Moon 2:43 AM MDT (7/22) 6:00 PM MDT (7/22)
Length of Visible Light 16h 30m
Length of Day
15h 16m
Waning Crescent, 16% of the Moon is Illuminated
Jul 22
Waning Crescent
Jul 26
New
Aug 3
First Quarter
Aug 10
Full
Aug 17
Last Quarter

Hourly Weather History & Observations

Time (MDT) Temp. Dew Point Humidity Pressure Visibility Wind Dir Wind Speed Gust Speed Precip Events Conditions
12:53 AM 59.0 °F 35.1 °F 41% 30.06 in 10.0 mi NW 4.6 mph - N/A   Scattered Clouds
1:53 AM 59.0 °F 36.0 °F 42% 30.07 in 10.0 mi Calm Calm - N/A   Clear
2:53 AM 54.0 °F 41.0 °F 62% 30.08 in 10.0 mi NW 4.6 mph - N/A   Clear
3:53 AM 55.0 °F 41.0 °F 59% 30.08 in 10.0 mi Calm Calm - N/A   Clear
4:53 AM 51.1 °F 41.0 °F 68% 30.10 in 10.0 mi Calm Calm - N/A   Clear
5:53 AM 53.1 °F 39.0 °F 59% 30.11 in 10.0 mi West 4.6 mph - N/A   Partly Cloudy
6:53 AM 54.0 °F 43.0 °F 66% 30.12 in 10.0 mi WSW 3.5 mph - N/A   Partly Cloudy
7:53 AM 55.4 °F 44.6 °F 67% 30.17 in 10.0 mi SW 3.5 mph - N/A   Mostly Cloudy
8:53 AM 60.1 °F 41.0 °F 49% 30.14 in 10.0 mi Calm Calm - N/A   Partly Cloudy
9:53 AM 60.1 °F 43.0 °F 53% 30.16 in 10.0 mi West 5.8 mph - N/A   Overcast
10:53 AM 66.0 °F 44.1 °F 45% 30.14 in 10.0 mi SW 9.2 mph - 0.00 in   Mostly Cloudy
11:53 AM 72.0 °F 44.1 °F 37% 30.12 in 10.0 mi Calm Calm - N/A   Partly Cloudy
12:53 PM 81.0 °F 44.1 °F 27% 30.08 in 10.0 mi Variable 3.5 mph - N/A   Clear
1:53 PM 84.0 °F 45.0 °F 25% 30.06 in 10.0 mi SE 6.9 mph - N/A   Clear
2:53 PM 84.9 °F 44.1 °F 24% 30.06 in 10.0 mi SSW 5.8 mph - N/A   Scattered Clouds
3:53 PM 89.1 °F 45.0 °F 22% 30.03 in 10.0 mi Variable 5.8 mph - N/A   Clear
4:53 PM 88.0 °F 46.9 °F 24% 30.03 in 10.0 mi North 12.7 mph - N/A   Clear
5:53 PM 87.1 °F 48.0 °F 26% 30.03 in 10.0 mi NNE 13.8 mph - N/A   Partly Cloudy
6:53 PM 82.9 °F 48.0 °F 29% 30.03 in 10.0 mi North 18.4 mph 27.6 mph N/A   Clear
7:53 PM 80.6 °F 46.4 °F 30% 30.09 in 10.0 mi NNW 17.3 mph 29.9 mph N/A   Clear
8:53 PM 77.0 °F 46.9 °F 34% 30.04 in 10.0 mi North 19.6 mph 27.6 mph N/A   Clear
9:53 PM 73.9 °F 48.0 °F 40% 30.06 in 10.0 mi NW 10.4 mph 21.9 mph N/A   Clear
10:53 PM 73.0 °F 48.9 °F 42% 30.08 in 10.0 mi NNW 9.2 mph - N/A   Clear
11:53 PM 71.1 °F 48.9 °F 45% 30.07 in 10.0 mi NNW 11.5 mph - N/A   Clear